EN

Hourly Weather Alyashevo

Today, 16 January, Saturday

Time Temperature Precipitation Wind Pressure Humidity
00:00 -17°C° 0.1 mm 3 mps 739 mmHg 95%
01:00 -17°C° 0.3 mm 3 mps 739 mmHg 95%
02:00 -17°C° 0.3 mm 3 mps 739 mmHg 95%
03:00 -18°C° 0 mm 4 mps 738 mmHg 96%
04:00 -18°C° 0.3 mm 4 mps 737 mmHg 95%
05:00 -18°C° 0.3 mm 4 mps 737 mmHg 95%
06:00 -18°C° 0.3 mm 4 mps 736 mmHg 95%
07:00 -18°C° 0.6 mm 4 mps 736 mmHg 95%
08:00 -19°C° 0.6 mm 5 mps 736 mmHg 95%
09:00 -19°C° 0 mm 5 mps 735 mmHg 94%
10:00 -19°C° 0.6 mm 5 mps 735 mmHg 94%
11:00 -19°C° 0.6 mm 5 mps 735 mmHg 94%
12:00 -19°C° 0.6 mm 5 mps 735 mmHg 94%
13:00 -19°C° 0.5 mm 5 mps 735 mmHg 94%
14:00 -19°C° 0.5 mm 5 mps 735 mmHg 94%
15:00 -19°C° 0.5 mm 5 mps 735 mmHg 94%
16:00 -19°C° 0.4 mm 5 mps 735 mmHg 94%
17:00 -20°C° 0.4 mm 5 mps 736 mmHg 94%
18:00 -20°C° 0.4 mm 5 mps 736 mmHg 94%
19:00 -19°C° 0.1 mm 4 mps 736 mmHg 94%
20:00 -20°C° 0.1 mm 4 mps 737 mmHg 94%
21:00 -20°C° 0.1 mm 4 mps 737 mmHg 95%
22:00 -20°C° 0.1 mm 4 mps 737 mmHg 95%
23:00 -20°C° 0.1 mm 4 mps 738 mmHg 95%

Tomorrow, 17 January, Sunday

Time Temperature Precipitation Wind Pressure Humidity
00:00 -22°C° 0.1 mm 4 mps 738 mmHg 95%
01:00 -22°C° 0 mm 4 mps 738 mmHg 95%
02:00 -22°C° 0 mm 4 mps 739 mmHg 94%
03:00 -22°C° 0 mm 3 mps 739 mmHg 94%
04:00 -22°C° 0 mm 3 mps 740 mmHg 95%
05:00 -23°C° 0 mm 3 mps 740 mmHg 95%
06:00 -23°C° 0 mm 3 mps 740 mmHg 95%
07:00 -24°C° 0 mm 3 mps 740 mmHg 96%
08:00 -25°C° 0 mm 3 mps 741 mmHg 96%
09:00 -26°C° 0 mm 3 mps 741 mmHg 97%
10:00 -26°C° 0 mm 3 mps 742 mmHg 96%
11:00 -25°C° 0 mm 3 mps 742 mmHg 96%
12:00 -25°C° 0 mm 3 mps 743 mmHg 95%
13:00 -24°C° 0 mm 2 mps 743 mmHg 95%
14:00 -24°C° 0 mm 2 mps 743 mmHg 95%
15:00 -24°C° 0 mm 2 mps 744 mmHg 95%
16:00 -25°C° 0 mm 2 mps 744 mmHg 95%
17:00 -26°C° 0 mm 2 mps 744 mmHg 96%
18:00 -23°C° 0 mm 1 mps 745 mmHg 96%
19:00 -24°C° 0 mm 1 mps 745 mmHg 96%
20:00 -27°C° 0 mm 2 mps 745 mmHg 96%
21:00 -27°C° 0 mm 2 mps 745 mmHg 96%
22:00 -24°C° 0 mm 1 mps 746 mmHg 96%
23:00 -25°C° 0 mm 0 mps 746 mmHg 97%

Day after tomorrow, 18 January, Monday

Time Temperature Precipitation Wind Pressure Humidity
00:00 -25°C° 0 mm 0 mps 746 mmHg 97%
01:00 -25°C° 0 mm 0 mps 746 mmHg 97%
02:00 -27°C° 0 mm 1 mps 746 mmHg 97%
03:00 -27°C° 0 mm 1 mps 746 mmHg 97%
04:00 -27°C° 0 mm 1 mps 746 mmHg 97%
05:00 -27°C° 0 mm 1 mps 746 mmHg 97%
06:00 -28°C° 0 mm 1 mps 746 mmHg 97%
07:00 -27°C° 0 mm 1 mps 746 mmHg 97%
08:00 -27°C° 0 mm 1 mps 746 mmHg 97%
09:00 -26°C° 0 mm 0 mps 747 mmHg 96%
10:00 -25°C° 0 mm 0 mps 747 mmHg 95%
11:00 -24°C° 0 mm 0 mps 747 mmHg 94%
12:00 -23°C° 0 mm 1 mps 747 mmHg 93%
13:00 -23°C° 0 mm 1 mps 747 mmHg 94%
14:00 -22°C° 0 mm 1 mps 746 mmHg 94%
15:00 -22°C° 0 mm 1 mps 746 mmHg 94%
16:00 -22°C° 0 mm 1 mps 746 mmHg 95%
17:00 -23°C° 0 mm 1 mps 746 mmHg 95%
18:00 -23°C° 0 mm 0 mps 746 mmHg 95%
19:00 -23°C° 0 mm 1 mps 746 mmHg 94%
20:00 -22°C° 0 mm 1 mps 746 mmHg 94%
21:00 -22°C° 0 mm 1 mps 746 mmHg 94%
22:00 -22°C° 0 mm 1 mps 746 mmHg 94%
23:00 -21°C° 0 mm 1 mps 746 mmHg 94%

19 January, Tuesday

Time Temperature Precipitation Wind Pressure Humidity
00:00 -21°C° 0 mm 1 mps 746 mmHg 94%
01:00 -21°C° 0 mm 1 mps 746 mmHg 94%
02:00 -21°C° 0 mm 1 mps 746 mmHg 94%
03:00 -21°C° 0 mm 1 mps 746 mmHg 94%
04:00 -21°C° 0 mm 1 mps 745 mmHg 94%
05:00 -21°C° 0 mm 1 mps 745 mmHg 94%
06:00 -21°C° 0 mm 1 mps 745 mmHg 94%
07:00 -21°C° 0 mm 1 mps 745 mmHg 94%
08:00 -21°C° 0 mm 1 mps 745 mmHg 93%
09:00 -21°C° 0 mm 1 mps 745 mmHg 93%
10:00 -20°C° 0 mm 1 mps 745 mmHg 92%
11:00 -19°C° 0 mm 1 mps 745 mmHg 91%
12:00 -19°C° 0 mm 1 mps 745 mmHg 90%
13:00 -18°C° 0 mm 1 mps 745 mmHg 91%
14:00 -18°C° 0 mm 1 mps 744 mmHg 92%
15:00 -18°C° 0 mm 1 mps 744 mmHg 93%
16:00 -20°C° 0 mm 2 mps 744 mmHg 94%
17:00 -21°C° 0 mm 2 mps 744 mmHg 94%
18:00 -21°C° 0 mm 2 mps 745 mmHg 94%
19:00 -21°C° 0 mm 2 mps 745 mmHg 95%
20:00 -21°C° 0 mm 2 mps 745 mmHg 96%
21:00 -20°C° 0 mm 2 mps 745 mmHg 96%
22:00 -21°C° 0 mm 2 mps 745 mmHg 97%
23:00 -21°C° 0 mm 2 mps 745 mmHg 97%

20 January, Wednesday

Time Temperature Precipitation Wind Pressure Humidity
00:00 -21°C° 0 mm 2 mps 746 mmHg 97%
01:00 -21°C° 0 mm 2 mps 746 mmHg 97%
02:00 -21°C° 0 mm 2 mps 746 mmHg 97%
03:00 -21°C° 0 mm 2 mps 746 mmHg 97%
04:00 -21°C° 0 mm 2 mps 747 mmHg 98%
05:00 -21°C° 0 mm 2 mps 747 mmHg 98%
06:00 -21°C° 0 mm 2 mps 747 mmHg 98%
07:00 -21°C° 0 mm 2 mps 747 mmHg 98%
08:00 -21°C° 0 mm 2 mps 747 mmHg 98%
09:00 -21°C° 0 mm 2 mps 748 mmHg 98%
10:00 -20°C° 0 mm 2 mps 748 mmHg 97%
11:00 -19°C° 0 mm 2 mps 748 mmHg 96%
12:00 -18°C° 0 mm 2 mps 748 mmHg 95%
13:00 -18°C° 0 mm 2 mps 748 mmHg 94%
14:00 -17°C° 0 mm 2 mps 748 mmHg 94%
15:00 -17°C° 0 mm 2 mps 748 mmHg 94%
16:00 -18°C° 0 mm 2 mps 749 mmHg 94%
17:00 -19°C° 0 mm 2 mps 749 mmHg 94%
18:00 -21°C° 0 mm 3 mps 749 mmHg 94%
19:00 -22°C° 0 mm 3 mps 749 mmHg 94%
20:00 -22°C° 0 mm 3 mps 749 mmHg 94%
21:00 -22°C° 0 mm 3 mps 749 mmHg 94%
22:00 -22°C° 0 mm 3 mps 749 mmHg 94%
23:00 -22°C° 0 mm 3 mps 749 mmHg 93%

21 January, Thursday

Time Temperature Precipitation Wind Pressure Humidity
00:00 -23°C° 0 mm 4 mps 749 mmHg 93%
01:00 -22°C° 0 mm 4 mps 749 mmHg 92%
02:00 -22°C° 0 mm 4 mps 748 mmHg 91%
03:00 -20°C° 0 mm 4 mps 748 mmHg 91%
04:00 -20°C° 0 mm 5 mps 747 mmHg 91%
05:00 -19°C° 0 mm 5 mps 747 mmHg 91%
06:00 -20°C° 0 mm 6 mps 746 mmHg 92%
07:00 -18°C° 0 mm 6 mps 746 mmHg 91%
08:00 -18°C° 0 mm 7 mps 745 mmHg 91%
09:00 -17°C° 0 mm 7 mps 745 mmHg 90%
10:00 -14°C° 0.3 mm 7 mps 744 mmHg 91%
11:00 -13°C° 0.3 mm 8 mps 744 mmHg 92%
12:00 -12°C° 0.3 mm 8 mps 744 mmHg 92%
13:00 -11°C° 0.2 mm 8 mps 743 mmHg 92%
14:00 -9°C° 0.2 mm 7 mps 743 mmHg 91%
15:00 -8°C° 0.2 mm 7 mps 742 mmHg 91%
16:00 -8°C° 0.1 mm 7 mps 742 mmHg 91%
17:00 -6°C° 0.1 mm 6 mps 742 mmHg 91%
18:00 -6°C° 0.1 mm 6 mps 742 mmHg 92%
19:00 -6°C° 0 mm 6 mps 742 mmHg 92%
20:00 -6°C° 0 mm 5 mps 742 mmHg 93%
21:00 -5°C° 0 mm 5 mps 742 mmHg 94%
22:00 -5°C° 0 mm 5 mps 742 mmHg 93%
23:00 -5°C° 0 mm 5 mps 742 mmHg 93%
Show more